Precipitable_Water
0.94 0.92 0.91 0.95 1.01 1.07 1.11 1.09 1.06 0.96 0.90 0.87 0.83 0.84 0.84 0.84 0.84 0.83 0.80 0.78 0.79 0.79 0.77 0.77 0.75 0.71 0.70 0.67 0.66 0.63 0.61 0.60 0.62 0.59 0.63 0.61 0.61 0.61 0.58 0.62 0.61 0.58 0.57 0.56 0.58 0.57 0.57 0.58 0.58 0.59 0.58 0.53 0.53 0.56 0.58 0.57 0.58 0.57 0.56 0.55 0.51 0.50 0.47 0.40 0.32 0.30 0.33 0.36 0.35 0.35 0.38 0.39 0.35 0.38 0.34 0.33 0.31 0.32 0.34 0.37 0.38 0.38 0.39 0.40 0.41
0.92 0.92 0.93 0.92 0.92 0.97 1.04 1.09 1.12 1.12 1.11 1.00 0.90 0.89 0.87 0.86 0.88 0.88 0.83 0.84 0.83 0.82 0.82 0.84 0.84 0.82 0.79 0.78 0.77 0.75 0.71 0.67 0.65 0.62 0.62 0.61 0.60 0.60 0.56 0.60 0.60 0.59 0.60 0.58 0.58 0.57 0.56 0.55 0.60 0.60 0.60 0.55 0.54 0.58 0.58 0.59 0.57 0.55 0.54 0.54 0.51 0.49 0.50 0.43 0.38 0.33 0.30 0.36 0.35 0.39 0.38 0.40 0.33 0.36 0.32 0.30 0.31 0.33 0.34 0.36 0.38 0.39 0.39 0.40 0.40
0.99 0.97 0.96 0.96 0.97 0.95 0.97 1.01 1.05 1.06 1.07 1.08 1.03 0.95 0.92 0.91 0.93 0.89 0.87 0.88 0.90 0.88 0.87 0.89 0.90 0.90 0.88 0.86 0.84 0.83 0.83 0.80 0.77 0.72 0.67 0.66 0.62 0.62 0.62 0.60 0.60 0.60 0.59 0.59 0.58 0.59 0.57 0.55 0.57 0.59 0.60 0.57 0.56 0.58 0.60 0.60 0.59 0.55 0.53 0.53 0.49 0.48 0.47 0.48 0.45 0.42 0.39 0.38 0.40 0.36 0.35 0.35 0.32 0.31 0.33 0.34 0.35 0.36 0.34 0.35 0.36 0.38 0.39 0.40 0.41
1.00 1.04 1.03 0.96 0.96 0.99 1.00 0.98 1.02 1.09 1.11 1.09 1.02 1.02 0.97 0.95 0.95 0.93 0.92 0.92 0.92 0.95 0.94 0.93 0.92 0.92 0.92 0.91 0.91 0.90 0.88 0.88 0.87 0.85 0.82 0.78 0.74 0.69 0.68 0.64 0.60 0.61 0.60 0.60 0.60 0.61 0.61 0.60 0.60 0.61 0.61 0.58 0.57 0.58 0.61 0.64 0.61 0.58 0.54 0.54 0.52 0.50 0.51 0.50 0.50 0.46 0.45 0.41 0.42 0.40 0.38 0.34 0.33 0.33 0.33 0.35 0.35 0.35 0.36 0.37 0.38 0.38 0.39 0.39 0.38
1.00 1.02 1.00 0.98 0.99 0.99 1.00 1.02 1.01 1.03 1.04 1.05 1.05 1.04 1.02 1.00 0.95 0.92 0.92 0.91 0.92 0.94 0.96 0.97 0.96 0.95 0.93 0.92 0.91 0.91 0.90 0.90 0.89 0.89 0.90 0.88 0.85 0.81 0.77 0.72 0.67 0.65 0.65 0.63 0.62 0.63 0.64 0.63 0.65 0.64 0.63 0.61 0.59 0.57 0.62 0.62 0.63 0.62 0.57 0.53 0.51 0.49 0.47 0.47 0.47 0.48 0.45 0.41 0.40 0.42 0.41 0.39 0.37 0.37 0.38 0.36 0.35 0.34 0.34 0.34 0.35 0.36 0.37 0.40 0.42
0.96 0.97 0.99 0.94 0.93 0.96 0.99 0.98 0.94 0.90 0.90 0.94 0.99 1.04 1.03 0.98 0.94 0.93 0.94 0.92 0.92 0.92 0.93 0.96 0.96 0.95 0.96 0.97 0.95 0.92 0.93 0.93 0.92 0.92 0.92 0.90 0.87 0.85 0.84 0.81 0.77 0.72 0.70 0.69 0.67 0.68 0.67 0.66 0.66 0.65 0.65 0.62 0.59 0.60 0.60 0.60 0.61 0.59 0.56 0.54 0.51 0.47 0.42 0.41 0.43 0.44 0.43 0.42 0.41 0.39 0.40 0.38 0.38 0.38 0.40 0.39 0.36 0.34 0.35 0.37 0.38 0.38 0.37 0.37 0.39
0.87 0.84 0.85 0.85 0.84 0.85 0.84 0.84 0.90 0.94 0.96 0.98 1.04 1.08 1.03 0.98 0.96 0.93 0.95 0.94 0.92 0.91 0.93 0.94 0.96 0.97 0.99 1.00 1.01 0.99 0.97 0.96 0.96 0.95 0.93 0.90 0.87 0.84 0.83 0.83 0.80 0.77 0.74 0.73 0.73 0.71 0.69 0.70 0.69 0.67 0.64 0.62 0.59 0.59 0.59 0.58 0.58 0.56 0.55 0.51 0.49 0.45 0.40 0.36 0.36 0.36 0.36 0.37 0.37 0.37 0.37 0.39 0.40 0.37 0.38 0.39 0.38 0.38 0.35 0.34 0.33 0.37 0.38 0.37 0.36
0.73 0.75 0.76 0.77 0.79 0.82 0.80 0.82 0.89 0.94 1.01 1.06 1.04 1.01 0.98 0.94 0.92 0.93 0.97 0.94 0.91 0.90 0.91 0.91 0.92 0.93 0.95 0.97 1.00 1.01 0.98 0.95 0.95 0.93 0.93 0.93 0.91 0.89 0.87 0.86 0.84 0.82 0.81 0.79 0.77 0.76 0.75 0.73 0.71 0.69 0.67 0.66 0.63 0.61 0.59 0.57 0.57 0.53 0.49 0.45 0.42 0.40 0.37 0.34 0.32 0.31 0.31 0.31 0.31 0.32 0.34 0.35 0.37 0.39 0.39 0.38 0.35 0.34 0.38 0.36 0.32 0.32 0.33 0.35 0.37
0.57 0.61 0.63 0.66 0.70 0.75 0.79 0.86 0.94 0.96 0.97 0.97 0.97 0.99 0.99 0.98 0.93 0.90 0.88 0.86 0.86 0.86 0.87 0.87 0.86 0.87 0.90 0.91 0.93 0.96 0.94 0.92 0.94 0.95 0.93 0.93 0.93 0.91 0.90 0.87 0.88 0.88 0.85 0.80 0.79 0.79 0.79 0.77 0.72 0.70 0.71 0.70 0.67 0.64 0.60 0.56 0.52 0.50 0.49 0.44 0.39 0.35 0.34 0.31 0.28 0.28 0.30 0.30 0.30 0.32 0.33 0.33 0.35 0.36 0.38 0.38 0.37 0.36 0.39 0.39 0.35 0.35 0.34 0.33 0.34
0.54 0.53 0.52 0.55 0.62 0.66 0.73 0.76 0.77 0.76 0.78 0.81 0.85 0.85 0.85 0.84 0.84 0.83 0.82 0.83 0.85 0.87 0.86 0.85 0.83 0.82 0.84 0.87 0.91 0.94 0.94 0.94 0.93 0.94 0.95 0.94 0.92 0.90 0.90 0.89 0.89 0.90 0.87 0.82 0.79 0.80 0.79 0.76 0.73 0.70 0.68 0.67 0.65 0.61 0.58 0.55 0.53 0.51 0.48 0.44 0.41 0.38 0.36 0.33 0.31 0.29 0.28 0.27 0.28 0.29 0.28 0.30 0.32 0.34 0.35 0.37 0.41 0.42 0.41 0.39 0.35 0.36 0.37 0.35 0.36
0.52 0.51 0.49 0.50 0.52 0.55 0.56 0.58 0.58 0.59 0.64 0.67 0.71 0.74 0.74 0.76 0.78 0.82 0.85 0.87 0.86 0.85 0.85 0.83 0.84 0.86 0.87 0.87 0.87 0.88 0.90 0.92 0.91 0.91 0.92 0.94 0.94 0.91 0.87 0.86 0.87 0.86 0.85 0.83 0.81 0.81 0.79 0.76 0.72 0.68 0.67 0.65 0.64 0.61 0.59 0.56 0.56 0.54 0.50 0.48 0.47 0.44 0.40 0.36 0.33 0.31 0.29 0.28 0.29 0.30 0.29 0.29 0.31 0.34 0.35 0.37 0.38 0.38 0.39 0.41 0.41 0.40 0.38 0.34 0.31
0.41 0.41 0.42 0.38 0.42 0.47 0.53 0.54 0.53 0.54 0.58 0.62 0.65 0.69 0.73 0.75 0.76 0.77 0.77 0.78 0.79 0.80 0.78 0.78 0.79 0.82 0.83 0.83 0.83 0.84 0.86 0.88 0.87 0.87 0.89 0.90 0.91 0.89 0.87 0.83 0.82 0.82 0.82 0.83 0.83 0.82 0.79 0.74 0.70 0.67 0.66 0.66 0.64 0.62 0.60 0.59 0.59 0.57 0.54 0.52 0.50 0.48 0.44 0.40 0.35 0.32 0.32 0.31 0.30 0.31 0.31 0.31 0.33 0.35 0.35 0.37 0.36 0.37 0.37 0.38 0.38 0.39 0.38 0.37 0.36
0.37 0.38 0.38 0.38 0.39 0.40 0.41 0.40 0.39 0.41 0.44 0.48 0.50 0.54 0.58 0.61 0.63 0.62 0.64 0.70 0.73 0.72 0.72 0.74 0.72 0.71 0.69 0.66 0.65 0.67 0.71 0.78 0.82 0.85 0.88 0.89 0.88 0.85 0.82 0.80 0.79 0.80 0.81 0.82 0.80 0.76 0.73 0.70 0.67 0.64 0.64 0.64 0.63 0.62 0.60 0.59 0.59 0.57 0.56 0.53 0.50 0.47 0.45 0.43 0.41 0.38 0.36 0.34 0.32 0.32 0.33 0.34 0.34 0.35 0.38 0.38 0.39 0.36 0.36 0.36 0.37 0.37 0.37 0.36 0.37
0.41 0.40 0.37 0.38 0.39 0.38 0.37 0.40 0.41 0.42 0.43 0.43 0.41 0.42 0.43 0.45 0.48 0.54 0.59 0.64 0.63 0.65 0.65 0.62 0.61 0.57 0.56 0.55 0.57 0.62 0.66 0.70 0.74 0.78 0.79 0.80 0.81 0.81 0.79 0.78 0.78 0.80 0.81 0.79 0.75 0.74 0.73 0.68 0.65 0.61 0.60 0.60 0.60 0.59 0.58 0.58 0.56 0.54 0.52 0.51 0.50 0.48 0.46 0.45 0.43 0.41 0.40 0.37 0.36 0.33 0.35 0.38 0.36 0.37 0.40 0.41 0.38 0.36 0.37 0.35 0.37 0.36 0.35 0.34 0.36
0.40 0.40 0.38 0.39 0.39 0.38 0.39 0.40 0.40 0.41 0.41 0.40 0.38 0.35 0.35 0.36 0.38 0.42 0.47 0.51 0.54 0.53 0.55 0.57 0.59 0.61 0.62 0.59 0.56 0.58 0.61 0.66 0.66 0.68 0.71 0.74 0.75 0.76 0.75 0.77 0.78 0.77 0.73 0.77 0.77 0.75 0.70 0.66 0.62 0.58 0.57 0.57 0.57 0.57 0.55 0.54 0.53 0.51 0.51 0.51 0.49 0.48 0.47 0.47 0.46 0.44 0.42 0.41 0.40 0.39 0.39 0.40 0.40 0.41 0.41 0.42 0.41 0.40 0.40 0.38 0.38 0.37 0.36 0.37 0.37
0.43 0.42 0.41 0.40 0.39 0.39 0.40 0.40 0.39 0.39 0.37 0.34 0.32 0.32 0.33 0.34 0.34 0.36 0.36 0.40 0.44 0.47 0.48 0.51 0.54 0.56 0.58 0.58 0.56 0.53 0.57 0.57 0.57 0.60 0.64 0.67 0.69 0.70 0.72 0.71 0.71 0.76 0.78 0.75 0.73 0.74 0.70 0.64 0.61 0.57 0.54 0.53 0.54 0.55 0.54 0.53 0.51 0.51 0.51 0.50 0.49 0.48 0.48 0.48 0.47 0.46 0.45 0.45 0.45 0.44 0.43 0.43 0.43 0.42 0.42 0.41 0.40 0.40 0.39 0.38 0.38 0.36 0.33 0.31 0.30
0.42 0.42 0.42 0.40 0.38 0.39 0.42 0.40 0.39 0.37 0.35 0.32 0.31 0.31 0.31 0.31 0.32 0.33 0.31 0.34 0.38 0.43 0.47 0.49 0.50 0.51 0.54 0.58 0.59 0.58 0.54 0.55 0.57 0.61 0.62 0.64 0.65 0.66 0.68 0.68 0.66 0.66 0.67 0.71 0.71 0.67 0.63 0.62 0.59 0.56 0.54 0.54 0.57 0.57 0.57 0.57 0.53 0.51 0.49 0.48 0.47 0.45 0.45 0.47 0.47 0.47 0.46 0.44 0.44 0.44 0.43 0.42 0.41 0.40 0.39 0.39 0.38 0.38 0.36 0.32 0.30 0.32 0.29 0.26 0.26
0.44 0.41 0.41 0.41 0.40 0.42 0.43 0.43 0.40 0.39 0.38 0.36 0.35 0.35 0.34 0.33 0.31 0.31 0.29 0.30 0.32 0.36 0.41 0.46 0.51 0.52 0.51 0.54 0.56 0.56 0.57 0.60 0.61 0.62 0.63 0.65 0.65 0.64 0.64 0.64 0.65 0.64 0.63 0.65 0.66 0.64 0.63 0.60 0.58 0.55 0.54 0.56 0.58 0.58 0.58 0.55 0.52 0.51 0.49 0.46 0.44 0.43 0.42 0.43 0.43 0.42 0.42 0.42 0.41 0.41 0.40 0.40 0.39 0.38 0.37 0.36 0.36 0.36 0.33 0.28 0.30 0.31 0.27 0.28 0.26
0.49 0.47 0.47 0.46 0.44 0.42 0.43 0.45 0.44 0.43 0.41 0.40 0.39 0.38 0.37 0.36 0.36 0.36 0.34 0.34 0.34 0.35 0.39 0.41 0.44 0.46 0.49 0.52 0.55 0.57 0.60 0.62 0.61 0.60 0.62 0.64 0.64 0.63 0.62 0.63 0.64 0.68 0.69 0.65 0.62 0.60 0.57 0.57 0.55 0.54 0.55 0.57 0.57 0.56 0.54 0.52 0.50 0.48 0.46 0.43 0.39 0.37 0.38 0.39 0.37 0.36 0.36 0.36 0.35 0.36 0.35 0.35 0.35 0.34 0.34 0.34 0.34 0.34 0.34 0.32 0.32 0.30 0.27 0.27 0.28
0.48 0.49 0.49 0.48 0.47 0.45 0.43 0.43 0.42 0.41 0.39 0.38 0.39 0.40 0.43 0.42 0.40 0.38 0.36 0.35 0.34 0.35 0.41 0.45 0.47 0.49 0.52 0.52 0.52 0.56 0.58 0.60 0.61 0.61 0.61 0.62 0.63 0.64 0.64 0.61 0.59 0.59 0.58 0.56 0.55 0.55 0.53 0.52 0.52 0.53 0.53 0.52 0.51 0.50 0.48 0.47 0.44 0.42 0.40 0.37 0.36 0.35 0.38 0.37 0.36 0.35 0.34 0.34 0.33 0.33 0.33 0.34 0.35 0.35 0.35 0.35 0.35 0.36 0.36 0.36 0.35 0.34 0.32 0.30 0.30
0.48 0.48 0.49 0.49 0.47 0.46 0.43 0.40 0.39 0.40 0.40 0.40 0.42 0.44 0.45 0.44 0.44 0.42 0.39 0.39 0.38 0.36 0.39 0.43 0.45 0.47 0.49 0.51 0.52 0.55 0.57 0.57 0.58 0.60 0.61 0.61 0.61 0.61 0.61 0.61 0.63 0.61 0.57 0.55 0.51 0.47 0.47 0.48 0.49 0.48 0.47 0.46 0.45 0.45 0.43 0.41 0.41 0.40 0.39 0.38 0.39 0.39 0.39 0.36 0.35 0.35 0.34 0.34 0.34 0.34 0.34 0.34 0.34 0.35 0.35 0.35 0.35 0.35 0.36 0.36 0.37 0.37 0.35 0.33 0.32
0.47 0.45 0.44 0.44 0.44 0.43 0.42 0.42 0.41 0.41 0.43 0.45 0.44 0.44 0.46 0.47 0.46 0.45 0.44 0.40 0.38 0.39 0.43 0.44 0.46 0.46 0.48 0.49 0.50 0.51 0.53 0.55 0.55 0.55 0.57 0.60 0.61 0.61 0.60 0.60 0.61 0.59 0.55 0.51 0.49 0.47 0.47 0.46 0.46 0.47 0.47 0.47 0.45 0.42 0.41 0.42 0.42 0.40 0.40 0.41 0.40 0.39 0.37 0.38 0.38 0.37 0.35 0.34 0.34 0.33 0.33 0.33 0.33 0.34 0.34 0.35 0.36 0.36 0.37 0.37 0.37 0.37 0.38 0.38 0.36
0.51 0.50 0.49 0.48 0.47 0.46 0.46 0.45 0.45 0.44 0.44 0.45 0.44 0.44 0.46 0.46 0.45 0.44 0.42 0.42 0.42 0.42 0.43 0.45 0.46 0.46 0.47 0.48 0.50 0.50 0.51 0.52 0.53 0.53 0.54 0.56 0.59 0.61 0.59 0.57 0.56 0.53 0.49 0.46 0.45 0.45 0.46 0.46 0.48 0.48 0.45 0.41 0.40 0.41 0.43 0.44 0.44 0.42 0.42 0.42 0.41 0.40 0.40 0.39 0.38 0.36 0.35 0.34 0.33 0.32 0.32 0.33 0.33 0.33 0.33 0.34 0.35 0.36 0.37 0.38 0.38 0.38 0.38 0.39 0.40
0.47 0.47 0.47 0.48 0.47 0.47 0.48 0.48 0.48 0.47 0.47 0.46 0.46 0.44 0.43 0.43 0.43 0.43 0.44 0.45 0.45 0.45 0.45 0.46 0.46 0.46 0.46 0.47 0.49 0.51 0.52 0.52 0.52 0.52 0.53 0.56 0.58 0.57 0.55 0.53 0.49 0.46 0.43 0.42 0.42 0.41 0.43 0.44 0.42 0.40 0.40 0.40 0.41 0.43 0.45 0.46 0.46 0.46 0.45 0.44 0.42 0.41 0.39 0.38 0.36 0.35 0.34 0.33 0.32 0.32 0.32 0.33 0.33 0.33 0.33 0.35 0.36 0.37 0.37 0.38 0.38 0.39 0.39 0.39 0.40
0.45 0.46 0.47 0.48 0.48 0.48 0.48 0.47 0.45 0.44 0.43 0.43 0.41 0.40 0.40 0.41 0.41 0.45 0.47 0.48 0.46 0.46 0.47 0.47 0.45 0.45 0.45 0.46 0.48 0.51 0.51 0.50 0.50 0.50 0.52 0.54 0.54 0.52 0.50 0.48 0.46 0.43 0.42 0.44 0.44 0.43 0.41 0.44 0.45 0.44 0.43 0.42 0.42 0.44 0.44 0.44 0.43 0.44 0.44 0.43 0.41 0.39 0.37 0.35 0.33 0.33 0.32 0.31 0.31 0.31 0.32 0.32 0.33 0.34 0.36 0.36 0.37 0.38 0.38 0.38 0.39 0.39 0.40 0.40 0.40
0.43 0.45 0.46 0.47 0.47 0.48 0.48 0.48 0.47 0.47 0.46 0.45 0.44 0.43 0.42 0.43 0.43 0.46 0.50 0.51 0.51 0.51 0.50 0.50 0.49 0.47 0.45 0.46 0.47 0.47 0.48 0.48 0.49 0.51 0.51 0.49 0.47 0.47 0.46 0.45 0.44 0.44 0.45 0.44 0.43 0.44 0.44 0.45 0.44 0.43 0.43 0.43 0.43 0.43 0.42 0.42 0.42 0.42 0.41 0.40 0.39 0.37 0.34 0.32 0.32 0.31 0.31 0.31 0.31 0.31 0.32 0.34 0.35 0.36 0.37 0.38 0.37 0.36 0.37 0.37 0.37 0.38 0.39 0.39 0.38
0.43 0.43 0.44 0.47 0.48 0.48 0.46 0.45 0.45 0.45 0.45 0.46 0.46 0.47 0.48 0.46 0.47 0.50 0.53 0.54 0.53 0.52 0.50 0.49 0.47 0.45 0.45 0.46 0.47 0.48 0.48 0.48 0.49 0.51 0.48 0.46 0.45 0.45 0.44 0.45 0.44 0.42 0.41 0.42 0.43 0.42 0.41 0.40 0.40 0.43 0.44 0.44 0.43 0.42 0.41 0.41 0.39 0.38 0.37 0.36 0.35 0.34 0.34 0.34 0.34 0.33 0.33 0.33 0.33 0.34 0.35 0.36 0.37 0.37 0.36 0.36 0.36 0.37 0.38 0.38 0.37 0.37 0.38 0.39 0.38
0.42 0.42 0.42 0.42 0.42 0.42 0.43 0.43 0.44 0.47 0.48 0.47 0.47 0.48 0.49 0.51 0.51 0.52 0.54 0.55 0.52 0.50 0.49 0.46 0.43 0.42 0.43 0.45 0.45 0.45 0.45 0.47 0.45 0.44 0.45 0.45 0.45 0.44 0.43 0.42 0.41 0.40 0.40 0.39 0.38 0.38 0.38 0.40 0.43 0.44 0.43 0.42 0.40 0.39 0.39 0.37 0.36 0.34 0.34 0.34 0.35 0.36 0.37 0.37 0.37 0.36 0.35 0.35 0.34 0.35 0.35 0.35 0.34 0.35 0.35 0.35 0.35 0.36 0.38 0.37 0.37 0.37 0.38 0.39 0.36
0.41 0.40 0.40 0.40 0.40 0.40 0.40 0.40 0.40 0.42 0.44 0.45 0.47 0.49 0.50 0.51 0.53 0.56 0.60 0.60 0.56 0.52 0.49 0.46 0.45 0.46 0.47 0.45 0.45 0.46 0.45 0.43 0.46 0.48 0.45 0.42 0.40 0.38 0.37 0.37 0.36 0.35 0.36 0.37 0.38 0.40 0.41 0.42 0.41 0.39 0.37 0.35 0.34 0.33 0.32 0.32 0.32 0.33 0.34 0.35 0.36 0.36 0.36 0.35 0.33 0.33 0.34 0.35 0.34 0.34 0.34 0.35 0.35 0.36 0.36 0.36 0.36 0.37 0.39 0.38 0.39 0.38 0.39 0.39 0.37
0.39 0.39 0.39 0.39 0.37 0.36 0.37 0.39 0.40 0.41 0.41 0.41 0.42 0.45 0.50 0.52 0.53 0.52 0.54 0.57 0.56 0.55 0.53 0.50 0.51 0.51 0.51 0.51 0.53 0.47 0.46 0.47 0.47 0.43 0.40 0.37 0.36 0.36 0.36 0.36 0.36 0.37 0.39 0.41 0.42 0.41 0.40 0.38 0.36 0.34 0.33 0.32 0.30 0.30 0.30 0.31 0.31 0.32 0.33 0.34 0.35 0.34 0.35 0.35 0.35 0.35 0.36 0.35 0.36 0.36 0.36 0.36 0.35 0.36 0.36 0.36 0.38 0.39 0.40 0.40 0.39 0.40 0.39 0.38 0.38
0.39 0.39 0.39 0.36 0.36 0.37 0.38 0.39 0.41 0.39 0.39 0.40 0.42 0.44 0.46 0.50 0.53 0.54 0.55 0.53 0.53 0.54 0.55 0.56 0.55 0.51 0.49 0.48 0.48 0.47 0.46 0.43 0.39 0.37 0.37 0.36 0.37 0.37 0.37 0.39 0.40 0.41 0.42 0.41 0.40 0.38 0.36 0.33 0.32 0.31 0.30 0.30 0.30 0.30 0.31 0.31 0.32 0.32 0.33 0.34 0.34 0.34 0.35 0.34 0.35 0.36 0.36 0.37 0.37 0.37 0.38 0.38 0.37 0.38 0.38 0.39 0.39 0.40 0.42 0.43 0.43 0.42 0.41 0.40 0.39
0.35 0.34 0.33 0.33 0.36 0.38 0.39 0.41 0.42 0.41 0.42 0.43 0.43 0.44 0.44 0.44 0.48 0.52 0.54 0.57 0.59 0.57 0.54 0.53 0.52 0.50 0.49 0.47 0.45 0.43 0.41 0.39 0.38 0.37 0.37 0.38 0.38 0.40 0.42 0.43 0.43 0.43 0.43 0.42 0.38 0.34 0.32 0.30 0.29 0.29 0.29 0.29 0.30 0.31 0.32 0.32 0.32 0.32 0.33 0.33 0.33 0.34 0.35 0.35 0.37 0.38 0.38 0.38 0.38 0.39 0.39 0.40 0.40 0.41 0.42 0.42 0.43 0.43 0.44 0.44 0.44 0.44 0.44 0.44 0.44
0.34 0.35 0.36 0.37 0.39 0.41 0.42 0.45 0.46 0.45 0.43 0.42 0.42 0.42 0.41 0.41 0.41 0.43 0.48 0.51 0.50 0.49 0.48 0.49 0.48 0.47 0.47 0.45 0.43 0.40 0.39 0.39 0.38 0.39 0.40 0.41 0.43 0.45 0.47 0.47 0.45 0.43 0.41 0.36 0.32 0.29 0.28 0.29 0.28 0.29 0.29 0.29 0.30 0.31 0.31 0.32 0.32 0.33 0.33 0.33 0.34 0.35 0.36 0.38 0.40 0.40 0.40 0.41 0.41 0.42 0.43 0.44 0.45 0.45 0.46 0.47 0.46 0.46 0.47 0.47 0.47 0.47 0.47 0.46 0.46
0.39 0.38 0.38 0.39 0.39 0.41 0.41 0.43 0.44 0.44 0.44 0.43 0.42 0.41 0.41 0.41 0.41 0.40 0.39 0.40 0.43 0.46 0.48 0.47 0.46 0.45 0.43 0.41 0.40 0.40 0.40 0.40 0.41 0.42 0.43 0.45 0.47 0.48 0.47 0.44 0.42 0.39 0.34 0.29 0.28 0.27 0.28 0.28 0.29 0.29 0.29 0.30 0.30 0.31 0.31 0.32 0.33 0.34 0.34 0.35 0.36 0.38 0.39 0.41 0.41 0.42 0.43 0.45 0.45 0.46 0.47 0.48 0.49 0.48 0.49 0.49 0.50 0.50 0.49 0.49 0.49 0.48 0.47 0.47 0.47
0.39 0.39 0.39 0.40 0.40 0.40 0.41 0.41 0.42 0.42 0.42 0.42 0.41 0.40 0.40 0.41 0.41 0.39 0.37 0.39 0.46 0.46 0.47 0.47 0.46 0.44 0.42 0.41 0.41 0.41 0.42 0.42 0.42 0.43 0.44 0.45 0.46 0.46 0.43 0.37 0.32 0.31 0.30 0.28 0.28 0.28 0.28 0.28 0.28 0.28 0.29 0.29 0.30 0.31 0.32 0.33 0.35 0.36 0.36 0.37 0.39 0.40 0.42 0.43 0.44 0.46 0.47 0.48 0.48 0.49 0.50 0.50 0.51 0.52 0.51 0.51 0.51 0.50 0.51 0.51 0.51 0.51 0.50 0.50 0.49
0.38 0.38 0.38 0.39 0.40 0.41 0.41 0.42 0.42 0.41 0.41 0.42 0.42 0.42 0.43 0.43 0.41 0.40 0.41 0.45 0.48 0.48 0.47 0.45 0.41 0.40 0.40 0.40 0.41 0.42 0.42 0.42 0.42 0.42 0.44 0.45 0.44 0.41 0.33 0.29 0.29 0.28 0.27 0.26 0.26 0.27 0.28 0.28 0.29 0.29 0.30 0.31 0.32 0.33 0.34 0.35 0.37 0.38 0.40 0.41 0.42 0.44 0.45 0.46 0.47 0.48 0.50 0.50 0.50 0.51 0.52 0.52 0.53 0.53 0.53 0.53 0.53 0.52 0.52 0.52 0.53 0.53 0.53 0.53 0.53
0.38 0.38 0.39 0.40 0.42 0.43 0.44 0.45 0.43 0.47 0.45 0.45 0.47 0.49 0.48 0.45 0.45 0.45 0.47 0.49 0.48 0.46 0.42 0.39 0.37 0.38 0.40 0.41 0.42 0.43 0.43 0.42 0.42 0.43 0.44 0.43 0.40 0.35 0.30 0.30 0.29 0.28 0.26 0.25 0.25 0.26 0.27 0.28 0.30 0.31 0.32 0.33 0.33 0.35 0.36 0.37 0.39 0.41 0.44 0.45 0.47 0.47 0.48 0.49 0.50 0.50 0.51 0.51 0.51 0.52 0.52 0.53 0.54 0.54 0.54 0.52 0.53 0.53 0.53 0.53 0.53 0.53 0.54 0.54 0.54
0.41 0.41 0.41 0.44 0.46 0.48 0.47 0.44 0.42 0.48 0.49 0.48 0.48 0.47 0.44 0.44 0.48 0.52 0.51 0.48 0.47 0.43 0.39 0.38 0.39 0.39 0.38 0.40 0.43 0.42 0.42 0.43 0.43 0.42 0.40 0.36 0.33 0.31 0.31 0.32 0.30 0.27 0.26 0.24 0.25 0.27 0.28 0.29 0.31 0.32 0.33 0.34 0.34 0.36 0.38 0.39 0.42 0.44 0.46 0.47 0.48 0.49 0.50 0.50 0.51 0.51 0.52 0.52 0.52 0.53 0.53 0.54 0.54 0.54 0.54 0.53 0.53 0.53 0.52 0.52 0.52 0.51 0.52 0.52 0.52
0.44 0.45 0.46 0.47 0.47 0.48 0.50 0.49 0.48 0.45 0.43 0.44 0.44 0.44 0.45 0.49 0.53 0.51 0.48 0.47 0.45 0.42 0.40 0.40 0.40 0.40 0.41 0.43 0.43 0.44 0.43 0.41 0.38 0.34 0.32 0.31 0.32 0.32 0.32 0.30 0.29 0.28 0.25 0.24 0.26 0.28 0.29 0.30 0.32 0.33 0.33 0.34 0.36 0.37 0.39 0.41 0.43 0.45 0.47 0.48 0.49 0.49 0.50 0.50 0.50 0.51 0.51 0.52 0.53 0.54 0.54 0.54 0.55 0.55 0.55 0.54 0.53 0.53 0.52 0.52 0.52 0.51 0.50 0.50 0.50
0.45 0.46 0.49 0.49 0.49 0.49 0.49 0.49 0.48 0.47 0.46 0.47 0.47 0.48 0.53 0.53 0.51 0.49 0.48 0.46 0.44 0.42 0.41 0.40 0.40 0.41 0.44 0.45 0.43 0.43 0.40 0.35 0.33 0.31 0.31 0.30 0.32 0.32 0.31 0.29 0.29 0.28 0.24 0.24 0.27 0.29 0.30 0.31 0.33 0.33 0.33 0.35 0.36 0.37 0.39 0.41 0.43 0.46 0.47 0.48 0.48 0.49 0.50 0.50 0.51 0.51 0.52 0.53 0.53 0.54 0.54 0.55 0.55 0.55 0.55 0.54 0.54 0.53 0.52 0.51 0.51 0.52 0.51 0.51 0.51
0.49 0.48 0.48 0.50 0.50 0.50 0.49 0.47 0.44 0.45 0.49 0.53 0.55 0.55 0.54 0.52 0.51 0.48 0.46 0.44 0.42 0.40 0.40 0.40 0.41 0.44 0.46 0.45 0.43 0.39 0.33 0.32 0.31 0.30 0.30 0.30 0.31 0.30 0.30 0.30 0.30 0.28 0.24 0.25 0.28 0.30 0.31 0.32 0.33 0.33 0.34 0.35 0.36 0.37 0.39 0.41 0.43 0.45 0.46 0.47 0.48 0.49 0.50 0.51 0.51 0.52 0.53 0.53 0.54 0.54 0.55 0.55 0.55 0.54 0.53 0.54 0.55 0.54 0.54 0.54 0.54 0.54 0.53 0.53 0.53
0.52 0.51 0.50 0.50 0.51 0.50 0.49 0.47 0.49 0.53 0.56 0.56 0.54 0.53 0.52 0.49 0.46 0.45 0.45 0.43 0.41 0.41 0.41 0.42 0.44 0.45 0.45 0.41 0.37 0.34 0.32 0.32 0.32 0.32 0.33 0.32 0.31 0.29 0.30 0.31 0.29 0.26 0.25 0.26 0.28 0.31 0.32 0.32 0.33 0.33 0.34 0.34 0.35 0.37 0.38 0.39 0.41 0.44 0.45 0.47 0.48 0.49 0.50 0.51 0.52 0.53 0.53 0.54 0.54 0.55 0.55 0.56 0.55 0.55 0.55 0.55 0.55 0.55 0.55 0.55 0.55 0.55 0.55 0.55 0.54
0.55 0.54 0.53 0.52 0.52 0.51 0.51 0.54 0.57 0.56 0.55 0.53 0.51 0.48 0.45 0.44 0.44 0.45 0.45 0.44 0.44 0.44 0.44 0.44 0.44 0.42 0.38 0.36 0.34 0.33 0.33 0.34 0.33 0.32 0.31 0.29 0.28 0.30 0.31 0.31 0.29 0.29 0.28 0.28 0.30 0.32 0.32 0.33 0.33 0.34 0.34 0.34 0.36 0.37 0.38 0.39 0.40 0.42 0.44 0.45 0.47 0.49 0.50 0.51 0.52 0.53 0.54 0.54 0.55 0.55 0.55 0.56 0.55 0.55 0.55 0.56 0.56 0.56 0.55 0.55 0.56 0.56 0.56 0.56 0.55
0.60 0.59 0.59 0.58 0.58 0.58 0.58 0.57 0.55 0.53 0.50 0.48 0.46 0.44 0.44 0.45 0.46 0.46 0.45 0.46 0.46 0.46 0.44 0.42 0.39 0.37 0.35 0.35 0.35 0.34 0.32 0.31 0.29 0.28 0.27 0.26 0.29 0.32 0.31 0.31 0.31 0.31 0.28 0.27 0.30 0.32 0.33 0.33 0.34 0.34 0.34 0.35 0.37 0.38 0.39 0.40 0.40 0.40 0.41 0.43 0.47 0.49 0.51 0.52 0.53 0.53 0.54 0.54 0.55 0.55 0.55 0.55 0.55 0.55 0.56 0.57 0.56 0.55 0.55 0.56 0.55 0.56 0.56 0.56 0.56
0.58 0.58 0.57 0.56 0.55 0.54 0.52 0.51 0.50 0.48 0.47 0.47 0.46 0.47 0.48 0.48 0.47 0.47 0.47 0.46 0.45 0.44 0.42 0.39 0.37 0.35 0.34 0.32 0.31 0.29 0.27 0.26 0.26 0.25 0.26 0.28 0.32 0.33 0.32 0.32 0.32 0.29 0.26 0.26 0.30 0.33 0.33 0.33 0.34 0.34 0.34 0.35 0.36 0.37 0.38 0.39 0.40 0.39 0.39 0.42 0.46 0.49 0.51 0.53 0.54 0.56 0.56 0.55 0.55 0.56 0.55 0.55 0.55 0.56 0.56 0.56 0.55 0.55 0.56 0.56 0.55 0.55 0.55 0.55 0.55
0.53 0.52 0.52 0.51 0.50 0.50 0.49 0.49 0.49 0.49 0.49 0.49 0.48 0.48 0.47 0.47 0.47 0.47 0.46 0.45 0.44 0.41 0.39 0.37 0.35 0.33 0.30 0.28 0.27 0.26 0.25 0.26 0.26 0.26 0.26 0.29 0.32 0.32 0.31 0.31 0.30 0.27 0.24 0.27 0.31 0.32 0.33 0.33 0.34 0.34 0.34 0.34 0.35 0.36 0.37 0.38 0.37 0.35 0.35 0.39 0.45 0.50 0.53 0.55 0.57 0.57 0.57 0.57 0.56 0.56 0.55 0.54 0.55 0.56 0.56 0.57 0.56 0.56 0.57 0.57 0.57 0.55 0.55 0.55 0.55
0.52 0.51 0.51 0.51 0.50 0.50 0.49 0.49 0.49 0.49 0.48 0.48 0.48 0.48 0.48 0.48 0.48 0.47 0.46 0.43 0.41 0.39 0.37 0.35 0.33 0.30 0.28 0.27 0.26 0.25 0.26 0.26 0.25 0.25 0.26 0.30 0.32 0.32 0.31 0.31 0.29 0.26 0.25 0.28 0.31 0.32 0.33 0.34 0.34 0.34 0.34 0.34 0.35 0.35 0.36 0.35 0.33 0.31 0.32 0.38 0.45 0.50 0.53 0.55 0.57 0.57 0.58 0.58 0.58 0.56 0.55 0.55 0.55 0.56 0.57 0.57 0.58 0.57 0.58 0.58 0.57 0.55 0.55 0.55 0.55
0.52 0.51 0.51 0.50 0.50 0.49 0.49 0.49 0.48 0.49 0.49 0.49 0.49 0.48 0.47 0.46 0.45 0.43 0.40 0.38 0.36 0.35 0.33 0.31 0.28 0.26 0.26 0.25 0.25 0.25 0.25 0.25 0.24 0.25 0.27 0.31 0.32 0.31 0.32 0.30 0.27 0.26 0.26 0.28 0.30 0.32 0.33 0.33 0.34 0.34 0.34 0.34 0.34 0.35 0.34 0.32 0.29 0.28 0.31 0.37 0.44 0.49 0.52 0.55 0.56 0.57 0.58 0.59 0.58 0.57 0.56 0.56 0.56 0.57 0.57 0.57 0.58 0.58 0.58 0.58 0.58 0.58 0.57 0.56 0.55
0.50 0.50 0.50 0.50 0.50 0.50 0.50 0.49 0.49 0.48 0.48 0.47 0.46 0.45 0.43 0.42 0.41 0.40 0.37 0.36 0.33 0.31 0.28 0.26 0.25 0.25 0.24 0.24 0.24 0.24 0.25 0.25 0.24 0.24 0.27 0.31 0.32 0.32 0.32 0.29 0.26 0.26 0.28 0.28 0.30 0.31 0.32 0.33 0.34 0.34 0.34 0.34 0.34 0.33 0.32 0.29 0.27 0.26 0.29 0.35 0.42 0.47 0.51 0.54 0.55 0.56 0.57 0.58 0.58 0.57 0.57 0.57 0.57 0.57 0.58 0.58 0.58 0.59 0.59 0.59 0.59 0.59 0.58 0.57 0.56
0.49 0.49 0.48 0.48 0.47 0.47 0.47 0.47 0.46 0.45 0.45 0.43 0.42 0.41 0.42 0.41 0.40 0.38 0.35 0.34 0.31 0.28 0.26 0.25 0.24 0.24 0.23 0.23 0.23 0.24 0.24 0.24 0.24 0.25 0.28 0.31 0.33 0.32 0.32 0.29 0.26 0.26 0.28 0.28 0.29 0.30 0.31 0.32 0.33 0.34 0.34 0.34 0.33 0.32 0.30 0.28 0.25 0.25 0.27 0.33 0.40 0.45 0.48 0.52 0.54 0.55 0.56 0.57 0.57 0.57 0.57 0.57 0.58 0.58 0.58 0.58 0.58 0.58 0.58 0.58 0.59 0.59 0.59 0.58 0.57
0.46 0.46 0.46 0.45 0.45 0.45 0.44 0.44 0.43 0.43 0.42 0.42 0.42 0.41 0.40 0.39 0.37 0.36 0.33 0.30 0.26 0.25 0.25 0.25 0.25 0.24 0.24 0.24 0.24 0.24 0.24 0.24 0.25 0.26 0.30 0.32 0.32 0.32 0.31 0.29 0.27 0.26 0.27 0.27 0.28 0.29 0.30 0.31 0.32 0.33 0.33 0.32 0.32 0.30 0.29 0.28 0.25 0.24 0.26 0.31 0.38 0.43 0.46 0.49 0.52 0.54 0.55 0.56 0.56 0.56 0.56 0.56 0.56 0.56 0.56 0.57 0.58 0.58 0.57 0.58 0.59 0.58 0.58 0.58 0.58
Wind_Speed
16 17 18 19 20 19 18 18 18 17 17 17 16 14 14 13 13 13 12 12 11 11 11 11 10 10 10 10 9 9 9 9 9 9 8 8 8 8 8 8 8 8 8 8 8 8 8 8 8 8 8 8 9 9 9 10 10 11 11 11 11 12 12 13 14 15 16 16 16 16 16 16 16 16 17 17 17 17 17 17 18 18 18 19 20
16 17 17 18 20 20 20 19 18 16 15 15 15 15 14 14 14 13 13 13 13 12 12 12 13 12 12 12 12 12 11 11 11 11 11 11 11 11 11 10 10 10 10 10 10 10 10 10 10 10 10 10 10 11 11 11 11 11 12 12 13 13 14 14 15 16 17 17 17 17 17 17 18 18 18 18 19 18 18 19 19 19 19 19 19
15 16 17 18 19 20 20 20 20 18 16 15 15 15 15 15 15 14 14 14 14 14 14 14 14 14 14 14 14 14 14 14 14 13 13 13 13 13 13 13 13 13 13 12 12 12 12 12 12 12 12 12 12 12 13 13 12 12 13 13 14 14 15 16 16 17 18 19 19 19 19 19 20 20 20 20 20 20 20 20 20 20 20 20 20
14 15 16 17 18 19 20 20 21 21 20 18 18 17 17 17 17 16 16 16 16 16 16 16 16 16 16 16 16 16 16 16 15 15 15 15 15 15 15 15 15 15 15 14 14 14 14 14 14 14 14 14 14 14 14 14 14 14 14 15 15 16 17 17 18 18 19 20 20 20 21 21 21 21 21 21 21 21 21 21 21 21 21 21 21
15 15 16 16 17 19 20 21 22 23 23 23 21 20 19 20 20 19 18 18 17 17 17 18 18 18 18 19 19 19 19 18 18 17 17 17 16 16 16 16 16 16 16 16 15 16 16 15 15 15 15 16 16 16 16 16 16 16 17 17 18 18 19 19 19 20 20 21 21 22 22 22 22 22 22 22 22 22 22 22 22 22 22 22 22
16 16 17 17 18 19 20 21 23 23 24 24 24 22 21 21 22 23 22 21 20 19 19 20 21 21 21 21 21 22 21 21 21 20 19 18 18 17 17 17 17 17 17 17 16 16 16 16 16 16 16 16 17 17 17 18 18 18 19 19 20 20 20 20 21 21 21 21 22 22 23 23 23 24 23 23 23 23 23 23 23 23 23 23 23
15 16 17 18 19 20 21 22 22 22 23 23 24 23 22 22 23 24 24 24 23 23 23 23 23 23 23 23 24 25 24 23 23 22 21 20 19 19 19 18 18 18 18 17 17 17 17 17 17 17 17 17 17 18 18 19 19 20 20 21 21 21 21 22 22 22 22 22 23 23 24 24 24 25 25 25 25 25 25 25 25 25 25 25 25
16 17 17 18 19 20 20 21 21 22 22 23 24 24 24 24 24 24 24 24 24 24 24 25 24 24 24 23 23 24 25 24 24 23 23 22 22 21 21 21 20 20 20 19 19 19 19 19 19 19 19 19 19 19 19 20 20 21 21 22 22 22 22 22 23 23 23 23 24 24 25 25 25 26 26 26 26 26 26 26 26 27 27 27 27
17 17 17 18 18 19 19 20 20 21 22 23 25 25 25 25 24 24 23 24 24 24 24 24 24 24 24 24 22 22 23 24 24 23 23 23 23 23 23 23 23 22 22 21 21 21 21 21 22 22 21 21 21 21 21 21 22 22 23 23 23 23 23 23 24 24 24 25 25 25 26 26 26 26 27 27 28 28 29 29 29 29 29 29 29
18 18 18 18 18 18 19 19 20 21 21 22 23 24 24 24 24 24 24 24 24 25 24 24 24 24 24 24 24 24 24 25 25 25 25 25 25 25 24 24 24 24 24 23 23 23 23 23 23 23 22 23 23 23 23 23 24 24 24 24 25 25 24 25 25 25 25 26 26 27 27 27 28 28 28 28 29 30 30 31 31 31 31 31 31
19 19 19 19 19 19 19 19 20 20 21 21 22 23 23 24 24 24 24 25 24 24 24 24 25 24 24 24 25 25 26 26 27 28 28 28 27 27 27 26 26 26 26 25 25 25 25 25 24 24 24 25 25 25 26 26 26 27 26 26 26 26 26 27 27 27 27 28 28 28 28 29 29 29 29 30 30 30 31 31 32 32 32 32 32
19 19 20 20 20 20 20 21 21 21 22 22 22 23 23 24 24 25 26 26 26 25 25 25 25 25 25 26 26 27 28 28 29 30 30 30 30 30 29 29 29 28 28 28 28 28 28 27 27 27 28 28 28 28 28 29 29 29 29 29 29 29 29 29 30 30 30 30 30 30 30 30 30 30 30 31 31 32 32 32 33 33 33 34 34
20 20 20 20 21 21 21 22 22 22 22 23 23 23 24 24 25 26 27 27 27 27 28 28 28 28 27 28 28 29 30 31 31 31 31 32 32 32 31 31 31 31 31 31 31 30 30 30 30 31 31 31 31 31 31 31 31 31 31 31 31 31 31 32 32 32 32 32 33 33 32 32 32 32 32 32 33 33 33 33 34 34 34 35 35
21 21 21 21 22 22 22 22 22 22 23 23 24 24 25 25 26 27 27 27 28 29 29 30 30 31 31 31 31 31 31 32 32 32 32 32 32 32 32 32 32 32 32 32 32 31 31 32 32 32 32 32 32 32 32 32 32 33 33 33 33 33 33 33 34 34 34 34 35 35 35 34 34 34 34 34 34 35 35 35 35 36 36 37 37
23 23 23 23 23 23 23 24 23 23 23 24 24 24 25 25 26 27 27 28 28 29 29 30 31 31 32 32 32 31 31 32 32 32 33 32 32 32 32 32 32 32 32 32 32 32 32 32 32 32 33 33 33 33 33 33 34 34 34 34 34 34 35 35 35 35 36 36 36 37 36 36 36 36 36 36 36 37 37 37 37 38 39 39 39
24 24 25 25 25 25 25 25 25 25 25 25 25 25 25 25 26 26 27 28 28 29 29 30 30 31 31 32 31 31 31 31 30 31 31 30 31 31 32 32 33 32 32 32 32 33 33 33 33 34 34 34 34 34 34 34 35 34 34 35 35 36 36 36 37 37 37 37 37 37 37 37 37 38 38 38 39 39 39 39 39 39 40 40 40
26 26 27 26 26 27 26 26 26 26 25 25 25 25 25 25 26 26 27 28 28 29 29 30 30 30 31 31 31 31 31 30 30 30 29 29 29 30 31 31 32 31 31 32 33 33 34 34 35 35 35 34 34 34 35 35 35 35 35 36 36 37 37 37 38 38 38 38 38 39 39 39 40 40 41 41 42 42 42 42 42 41 41 41 41
28 28 28 28 28 28 27 27 27 26 26 26 26 26 26 26 27 27 27 28 29 29 29 30 30 30 30 31 31 31 30 30 29 29 29 29 29 30 30 30 30 31 31 32 32 33 33 34 34 34 34 34 33 34 34 35 35 35 36 36 37 37 38 38 38 38 39 40 40 41 41 42 43 43 43 44 44 44 44 44 44 43 43 43 42
29 29 29 29 28 28 28 27 27 27 27 27 27 27 27 27 27 28 28 29 29 30 30 30 31 31 30 30 30 30 30 30 29 28 28 29 29 29 30 30 30 30 31 31 32 32 33 33 32 32 33 32 32 33 34 34 35 35 36 37 37 38 39 39 39 40 40 41 41 42 42 43 43 43 43 43 43 43 43 43 43 43 44 44 43
31 30 30 29 29 29 29 29 29 29 29 29 29 28 28 28 28 29 29 30 30 30 31 31 31 31 31 31 31 31 30 30 29 29 28 29 29 29 30 29 29 29 30 30 31 31 32 32 31 31 31 32 32 33 33 34 35 36 37 37 38 39 39 39 40 40 40 41 41 41 41 41 41 41 41 41 41 41 41 41 41 41 42 43 43
32 32 32 31 31 31 31 30 31 31 31 30 30 29 29 29 30 30 30 30 31 31 31 31 31 31 31 31 31 31 30 30 30 29 29 29 29 29 29 29 29 30 30 30 31 31 31 31 32 31 31 32 33 33 34 35 36 37 37 38 38 39 39 39 39 40 40 39 39 39 39 39 38 38 38 38 38 39 39 39 40 40 41 42 42
33 33 33 33 32 32 32 32 32 32 32 31 31 31 31 31 30 31 31 31 31 31 31 31 31 31 31 31 31 30 30 30 29 29 29 29 29 29 29 29 30 30 31 31 31 32 32 32 32 32 32 33 34 35 35 36 36 37 37 37 38 38 38 38 38 38 38 38 38 38 38 38 38 38 38 38 38 38 39 39 40 40 41 42 43
34 34 34 34 33 33 33 32 32 32 32 32 32 32 32 31 31 31 31 31 31 30 30 31 30 30 30 30 30 30 29 29 29 28 28 28 28 28 28 29 29 30 31 31 32 32 32 32 32 33 33 34 35 35 36 36 36 36 36 36 36 37 37 37 37 37 37 37 37 37 38 38 38 39 39 39 39 39 40 40 41 41 42 43 44
35 35 34 34 34 34 33 33 33 33 33 33 33 33 33 32 32 32 32 31 30 30 30 30 30 29 29 29 29 29 28 28 27 27 27 27 27 27 28 28 29 30 31 31 31 31 32 32 32 32 33 34 34 35 35 35 35 34 35 35 35 35 35 35 35 36 36 36 37 37 38 38 39 39 39 39 40 41 41 42 42 43 43 43 44
36 36 35 35 35 35 35 34 34 34 34 34 34 34 33 33 33 32 32 31 30 30 29 29 29 29 28 28 27 27 26 26 26 26 26 26 26 27 27 28 28 29 30 30 29 29 29 30 30 31 32 32 32 32 32 32 32 32 32 33 33 33 34 34 35 35 36 36 37 38 38 38 39 39 40 41 41 42 42 42 43 43 43 43 43
37 36 36 36 36 35 35 35 34 34 34 34 34 34 33 33 33 33 32 30 29 29 29 28 28 28 27 27 26 26 25 25 25 25 25 25 25 25 26 26 27 27 27 27 26 27 27 28 29 29 29 29 29 29 29 29 30 30 31 32 32 33 33 34 34 35 36 37 38 38 39 39 40 40 41 42 42 42 42 42 42 42 42 42 42
36 36 36 36 36 36 35 34 34 33 33 33 32 32 32 32 33 32 31 29 29 28 28 28 27 26 26 25 25 24 24 24 24 24 24 23 24 24 24 24 24 24 24 24 24 24 25 26 26 26 26 26 26 27 27 28 29 30 31 31 32 32 33 34 35 36 37 38 39 39 40 41 41 42 42 42 42 42 42 42 42 42 42 41 42
36 36 36 36 36 36 35 34 33 33 32 32 31 31 31 30 30 30 30 29 29 28 27 27 27 26 25 24 23 22 23 23 23 23 23 23 23 22 22 22 21 21 21 22 22 22 23 23 24 24 24 24 25 26 27 28 29 30 31 31 32 33 34 35 36 37 38 39 40 41 41 42 42 42 42 42 42 42 42 42 42 41 41 41 40
36 36 36 35 36 36 35 35 34 33 32 31 31 30 30 29 29 29 29 29 28 28 27 26 26 25 24 23 22 22 22 22 22 22 22 21 21 21 20 20 20 20 20 20 21 21 21 21 22 22 23 24 25 26 27 28 29 30 31 32 33 34 36 37 38 39 40 40 41 41 41 41 41 40 40 40 40 40 40 39 39 39 39 38 38
37 36 36 35 35 35 35 34 33 32 32 31 30 30 29 28 28 28 28 28 27 26 25 25 24 24 22 21 21 21 21 21 20 20 19 19 19 19 18 18 18 19 19 19 19 20 20 20 20 21 22 23 24 25 26 27 28 30 31 32 34 35 36 37 38 39 39 40 40 39 39 39 39 39 39 39 39 39 38 38 38 37 37 36 36
37 36 35 34 34 33 33 33 32 32 32 31 30 28 27 26 25 25 25 25 24 23 23 23 22 22 22 21 20 20 19 19 19 18 17 17 17 17 17 17 17 18 18 18 18 18 18 18 19 20 22 23 24 25 26 27 28 30 32 33 34 35 36 37 38 38 38 38 38 38 38 38 38 38 37 37 37 37 37 36 36 36 35 35 35
36 36 35 34 33 32 31 31 31 31 30 28 27 26 25 24 23 22 22 22 21 21 21 21 21 21 21 20 20 19 18 17 17 16 16 15 16 16 16 17 17 16 16 15 15 16 16 17 18 20 21 22 23 24 26 27 29 30 32 33 34 34 35 36 37 37 37 37 37 37 36 36 35 35 34 34 33 33 33 32 32 32 32 32 32
36 35 34 33 32 31 30 30 29 29 28 27 26 25 24 22 21 20 20 19 18 18 18 19 18 18 18 18 18 17 16 16 15 15 15 15 15 15 15 15 14 13 13 13 13 15 16 17 18 19 20 21 23 24 26 27 28 29 31 32 33 34 34 35 36 35 35 35 34 33 32 31 31 30 30 29 29 29 28 28 28 28 28 28 28
35 35 34 33 33 32 31 30 29 28 27 26 25 24 23 22 20 19 19 17 16 15 15 15 15 15 15 15 15 14 14 14 14 14 14 14 14 14 13 12 12 11 12 12 13 14 15 16 17 19 20 21 22 23 25 26 27 29 30 31 33 34 34 34 33 32 31 30 29 29 28 27 26 26 26 25 25 25 24 24 23 23 23 23 23
35 35 34 33 32 32 31 30 29 28 27 25 24 23 22 20 19 19 18 17 16 15 14 14 14 14 14 14 13 13 13 13 13 14 13 13 12 11 10 10 10 10 11 11 11 12 13 15 16 18 19 20 22 23 24 26 27 29 30 32 33 33 32 31 30 29 27 26 25 24 23 23 22 22 22 22 21 20 20 19 19 19 19 19 20
35 34 33 32 31 30 30 29 28 27 26 24 23 21 20 19 18 18 17 16 15 14 13 13 12 12 12 12 12 12 12 12 12 12 11 10 10 9 8 8 8 8 8 8 9 11 12 14 15 17 18 20 21 22 24 25 27 28 30 31 31 30 29 27 26 25 23 22 21 21 20 19 19 19 18 17 17 17 17 17 17 17 17 18 18
31 31 31 30 29 28 27 27 26 25 24 23 21 20 19 18 17 17 17 16 14 13 12 12 11 11 11 11 11 11 11 11 10 9 9 8 8 7 6 6 5 5 6 7 8 9 11 13 15 16 18 20 21 22 24 25 27 28 29 29 28 26 25 23 22 21 21 20 19 18 17 16 16 15 15 15 15 16 16 17 17 17 18 18 18
28 27 27 27 26 25 24 24 24 23 22 21 21 20 19 18 17 17 16 16 14 13 12 11 11 11 11 11 11 10 10 9 8 8 7 7 6 5 5 4 4 4 5 6 7 9 11 13 15 16 18 19 21 22 24 26 26 27 27 26 24 23 21 20 19 19 19 18 16 16 15 14 14 14 15 15 16 16 17 17 18 18 19 19 19
25 24 23 23 23 22 22 22 21 21 21 20 20 20 19 18 17 17 16 15 13 12 11 11 11 11 10 10 9 9 8 8 8 8 7 6 6 5 5 4 3 3 4 6 8 10 11 13 15 17 18 19 21 22 24 25 26 26 24 23 22 21 19 19 18 18 17 15 15 14 14 14 14 15 15 15 16 17 18 18 18 18 18 19 19
22 22 21 20 21 21 20 20 20 20 20 20 20 19 18 18 18 17 16 14 13 12 12 12 11 10 9 9 9 8 8 7 7 7 7 6 6 5 5 4 3 3 4 6 8 10 11 13 15 17 18 19 21 22 23 25 26 25 23 22 21 20 19 18 18 17 15 14 14 14 13 14 15 16 16 16 17 17 17 17 17 17 17 17 17
17 18 18 19 19 18 18 19 19 20 19 19 19 18 18 18 18 17 15 14 13 12 12 11 11 10 10 10 9 9 8 7 7 8 7 7 6 5 4 3 2 3 5 7 8 10 11 14 16 17 18 20 21 22 24 25 26 24 22 21 20 19 19 18 18 16 14 14 14 13 13 14 15 16 16 16 16 16 16 16 16 16 15 15 14
13 15 17 18 18 18 19 20 19 19 18 18 19 19 19 18 17 16 14 13 12 11 11 11 11 11 11 10 10 10 9 8 8 8 7 6 5 4 3 2 1 3 5 7 8 10 12 14 16 17 18 20 22 23 24 26 26 25 22 21 20 20 19 18 18 16 14 13 13 13 14 15 15 16 15 15 15 15 15 15 15 14 14 13 12
16 17 18 18 19 20 20 19 18 18 19 20 20 19 17 17 16 15 13 12 11 11 12 12 12 11 11 10 11 10 10 9 8 7 7 6 5 4 3 1 2 3 5 7 9 10 12 14 16 17 19 21 22 23 24 26 26 25 23 21 20 20 19 18 18 16 14 13 13 13 14 15 15 15 15 15 14 14 14 14 14 13 12 11 9
18 19 19 19 19 19 19 19 19 20 20 19 18 17 16 15 15 13 12 12 12 12 12 12 12 11 11 11 11 10 9 8 8 7 6 5 4 3 2 2 3 4 6 8 9 10 12 14 15 17 19 21 23 24 25 26 26 26 24 22 20 20 19 18 17 16 15 14 13 14 14 15 15 14 14 14 13 12 12 12 12 12 10 9 7
19 19 20 20 20 20 20 20 20 20 19 17 16 15 14 13 13 12 13 13 13 12 12 11 11 11 11 11 10 9 9 8 7 6 5 5 4 3 2 2 4 5 6 8 9 11 12 13 15 17 19 21 23 25 25 26 26 26 25 23 21 20 19 18 17 16 15 14 14 14 14 14 14 13 13 13 11 11 11 11 11 10 9 8 6
21 21 21 21 21 21 20 19 19 18 17 16 15 14 13 12 12 12 12 12 12 11 11 11 11 10 10 9 9 9 9 8 6 5 5 4 4 3 2 3 4 5 6 8 9 11 12 13 15 17 19 21 23 25 26 26 27 27 26 24 22 20 19 18 17 16 15 14 14 13 13 13 13 12 13 12 11 10 10 10 10 9 9 8 7
21 20 20 20 20 19 18 18 17 17 16 15 14 13 12 12 11 11 11 11 11 11 10 10 10 9 9 9 8 8 8 7 6 5 4 4 3 3 3 4 4 5 6 7 9 11 12 13 15 17 19 21 23 24 25 27 27 27 26 25 23 22 20 19 17 16 15 15 14 12 11 11 12 12 12 12 11 10 9 9 8 9 9 8 7
19 19 19 18 17 17 16 16 16 15 14 14 13 11 11 10 10 10 10 10 10 10 9 9 9 9 8 8 8 7 7 6 5 4 4 3 3 3 4 5 5 5 6 7 9 11 12 13 14 16 19 21 22 23 25 27 27 27 27 26 24 23 22 20 18 16 16 15 14 12 10 10 11 12 12 11 11 10 8 8 7 7 7 8 7
16 16 16 15 14 14 14 13 13 13 12 11 11 10 9 9 10 10 10 10 9 9 9 9 9 8 8 8 7 7 6 5 4 4 4 3 3 4 5 5 5 6 7 8 9 10 12 13 14 16 18 20 21 23 25 26 27 27 27 26 25 24 23 21 19 17 17 16 14 11 10 10 11 11 11 11 11 9 8 7 7 6 6 6 7
14 14 13 12 12 11 11 11 10 10 10 9 9 8 9 9 9 9 9 9 9 8 8 8 8 8 8 7 7 6 6 5 5 4 4 4 4 5 5 5 6 6 7 8 9 10 11 13 14 16 17 19 20 22 24 25 26 27 27 27 26 25 24 23 20 19 18 17 14 11 10 10 10 10 10 11 11 10 8 8 7 7 6 6 5
11 11 11 10 10 9 9 9 9 9 9 8 8 8 9 9 9 8 8 7 7 7 7 7 7 7 7 7 6 6 6 6 5 5 5 5 5 5 6 6 7 7 8 8 9 10 11 12 14 16 17 18 19 21 23 24 25 26 27 27 27 26 25 24 22 20 18 17 15 12 10 9 9 10 10 10 10 9 9 8 8 8 7 6 5
Wind_Direction
243 241 242 239 234 235 241 245 246 245 239 235 237 239 240 242 243 245 245 246 249 252 253 254 255 255 255 255 256 257 256 256 257 257 259 262 263 265 267 267 268 271 274 276 280 284 286 287 289 291 295 298 297 296 297 296 294 293 291 290 289 288 286 283 280 279 280 281 280 280 280 280 280 280 280 279 279 280 278 276 275 273 270 268 266
245 245 244 239 235 236 240 245 244 242 239 237 237 238 240 242 244 245 244 246 249 253 255 256 257 257 257 257 258 259 259 259 258 257 258 260 262 265 266 266 268 270 270 271 275 278 281 284 286 287 290 295 297 297 298 298 295 293 292 289 288 287 285 284 283 282 283 284 283 281 281 281 281 281 281 280 280 279 278 277 275 274 272 270 269
248 248 245 240 238 237 239 242 240 237 239 241 240 240 241 243 245 245 246 248 251 254 256 256 257 257 257 257 258 259 260 260 260 260 260 261 262 264 264 264 265 269 269 270 273 275 277 279 282 283 285 289 292 294 297 298 295 294 294 292 290 288 286 285 284 284 284 285 284 283 282 281 280 280 279 279 279 278 277 276 276 275 274 273 272
250 249 246 243 242 241 241 242 239 238 242 247 247 246 246 246 245 246 249 250 252 255 256 257 257 258 258 258 258 259 260 261 261 262 262 263 264 263 264 263 263 266 267 268 271 273 274 276 278 280 283 285 287 290 292 293 293 293 293 293 293 291 289 287 284 283 283 284 284 283 283 282 280 279 278 277 277 276 275 275 275 274 274 274 273
251 251 249 247 246 245 244 244 243 243 247 250 250 250 250 248 247 250 252 253 254 255 257 258 258 258 258 259 260 259 259 259 260 262 263 264 264 263 263 264 264 265 266 267 269 270 272 274 276 278 281 282 284 287 289 290 290 291 291 291 292 292 292 289 287 284 284 284 284 283 282 282 281 280 279 278 277 276 275 274 273 273 273 273 272
253 253 252 250 249 248 248 249 249 249 250 250 249 250 253 252 251 253 254 255 256 257 259 260 262 262 260 261 262 259 257 258 258 260 263 262 261 261 262 264 265 265 266 268 269 270 270 272 275 277 279 281 282 284 286 288 289 290 290 290 290 291 292 291 289 287 285 284 284 284 284 283 282 280 279 279 278 277 276 275 273 272 272 271 271
256 255 256 256 254 253 253 253 253 252 250 248 248 251 254 255 255 256 255 255 256 259 262 263 265 266 263 264 264 259 256 258 259 259 260 259 258 259 260 262 264 264 265 268 270 271 271 273 276 278 279 281 283 284 285 287 288 289 290 290 289 290 291 291 290 288 286 285 285 285 285 284 283 281 279 279 278 277 277 277 275 273 272 271 271
260 259 258 258 258 258 258 256 254 252 251 250 251 253 255 257 257 257 256 255 256 261 263 264 266 267 265 266 267 259 254 257 259 257 257 257 257 258 259 261 263 264 264 267 269 271 273 275 277 278 280 282 283 284 285 286 287 288 289 289 288 288 289 289 289 288 287 286 286 285 285 285 284 282 280 279 278 277 277 277 276 275 273 272 270
262 260 259 257 257 258 258 257 256 255 255 254 254 255 257 257 258 258 258 258 259 261 262 262 264 265 265 265 265 260 255 257 258 257 257 258 258 258 260 262 263 262 262 265 268 271 273 275 276 278 279 281 281 282 283 285 286 288 289 288 287 287 287 287 288 287 286 286 286 286 285 285 284 284 282 281 279 278 277 277 276 276 275 273 271
260 259 259 258 258 257 257 257 257 258 258 258 258 258 259 259 259 260 260 260 261 261 261 262 262 264 265 264 263 261 258 258 257 257 259 260 259 259 261 263 263 261 260 264 267 269 271 273 275 276 277 279 280 281 281 283 285 287 287 287 287 287 286 286 286 286 286 286 286 286 286 285 284 284 283 282 280 279 278 277 277 276 275 274 273
259 258 258 258 258 258 258 258 258 259 260 260 260 261 261 261 261 262 262 261 262 261 261 261 262 263 264 263 263 261 260 260 259 259 260 261 260 261 261 262 262 260 260 263 266 269 270 272 274 275 277 278 279 279 280 282 283 284 285 285 285 285 285 285 286 286 285 285 286 286 285 285 285 284 283 282 281 280 280 278 277 276 275 274 272
259 258 258 258 259 258 258 258 259 259 260 260 262 262 262 262 262 262 262 262 262 262 262 262 262 263 263 263 263 262 262 262 262 263 264 262 262 262 262 261 261 261 261 263 266 268 270 272 274 276 277 277 278 278 279 280 282 282 282 283 284 285 285 285 285 285 285 285 285 285 285 284 284 283 282 281 281 281 280 279 278 276 275 274 273
259 258 258 259 259 259 259 259 259 259 259 260 262 263 263 263 263 263 263 263 262 262 263 263 264 264 265 264 264 264 264 265 265 266 266 264 263 263 263 262 261 261 262 263 265 268 270 272 274 276 277 276 276 277 278 279 280 281 281 282 283 284 285 285 285 284 284 284 284 284 284 283 283 282 281 280 280 280 279 278 278 277 276 275 274
258 257 259 260 261 260 261 261 260 260 261 262 263 264 264 265 265 265 265 264 264 264 264 264 265 265 266 266 266 267 267 267 267 267 267 266 263 262 262 262 261 261 262 263 265 268 270 273 274 275 276 276 276 277 277 279 280 280 281 281 282 283 284 284 284 284 284 284 283 283 284 283 282 282 282 280 279 279 278 277 277 277 276 276 275
260 258 260 262 262 261 261 261 261 262 263 263 264 265 265 265 266 266 266 266 266 266 266 266 267 267 267 268 269 269 269 269 269 268 267 266 263 262 261 261 260 261 262 263 266 268 270 272 273 275 276 276 277 277 278 278 279 279 280 281 281 283 283 283 283 283 283 283 282 282 283 282 282 282 281 281 279 278 278 277 276 276 276 276 275
263 261 260 261 262 262 262 262 262 263 263 264 265 265 266 267 267 267 268 268 267 267 267 267 268 268 268 268 269 270 270 270 269 269 267 265 264 262 261 261 261 262 263 264 266 268 270 271 273 274 276 277 278 278 278 279 278 279 280 280 281 282 282 282 282 281 281 281 281 281 281 281 281 281 281 281 280 279 278 277 277 276 276 275 274
264 263 262 262 263 263 262 262 263 263 263 265 266 266 267 268 269 269 269 269 269 269 268 268 268 268 268 268 268 269 270 270 269 268 267 266 265 263 262 261 262 263 264 265 267 268 270 271 273 275 276 277 278 279 279 279 279 279 280 281 281 282 282 282 282 282 281 281 281 281 280 280 280 280 280 280 280 279 279 278 277 277 276 275 274
264 264 263 263 263 263 263 263 263 263 263 264 265 267 268 269 269 270 270 270 270 269 269 269 269 269 269 268 268 268 269 270 269 268 267 266 266 265 263 262 263 264 266 267 268 270 271 273 274 275 275 276 277 278 279 279 279 280 280 281 282 282 282 282 282 282 282 282 282 282 281 281 280 280 279 279 279 278 277 277 276 276 275 274 273
265 265 264 264 264 264 264 264 263 262 262 263 265 267 268 268 269 269 270 270 270 269 269 269 269 269 269 268 268 268 269 269 269 268 268 267 266 266 265 264 265 267 268 269 270 271 272 274 275 275 275 275 276 277 278 279 279 280 281 282 283 283 283 283 283 283 283 282 282 282 282 282 281 281 280 280 279 278 276 276 276 275 274 273 273
265 265 265 265 265 265 265 264 264 263 263 264 266 266 267 267 268 269 270 271 271 271 270 269 269 269 269 269 269 269 269 268 268 268 268 267 267 266 266 266 266 267 268 269 271 272 273 274 274 274 275 275 276 277 279 280 280 281 282 283 283 283 283 284 284 284 284 283 283 283 283 282 282 281 281 280 279 278 277 276 276 275 274 274 273
264 264 264 265 265 264 264 264 264 264 264 264 265 265 266 267 268 269 270 271 272 272 271 269 269 269 269 269 269 269 268 267 267 267 267 267 266 266 266 266 266 267 268 270 271 272 273 274 274 274 275 276 278 279 280 281 282 282 283 283 283 284 284 285 285 285 284 284 284 284 283 283 282 282 281 281 280 279 278 277 276 275 273 273 273
262 262 263 263 263 262 263 263 263 264 264 264 264 265 266 267 267 268 270 271 272 272 270 269 269 269 269 269 269 268 267 267 266 266 266 266 265 265 265 266 267 268 269 270 271 272 273 274 274 275 276 277 279 280 281 282 282 283 283 283 283 284 285 285 285 285 285 285 284 284 284 283 283 282 282 281 281 280 279 278 278 276 274 273 272
261 261 261 261 262 262 262 262 263 263 264 264 264 265 266 267 268 269 269 270 271 271 269 268 268 268 268 268 268 267 266 266 265 265 265 264 264 265 265 267 268 269 269 270 271 272 273 274 274 275 277 278 280 281 281 282 282 283 283 283 284 285 285 286 286 285 285 285 285 284 284 283 283 282 282 281 281 280 279 278 278 277 276 275 273
260 260 261 261 261 261 262 262 263 263 264 265 265 266 267 268 268 268 268 269 270 269 268 267 268 267 267 267 267 266 265 265 265 265 264 263 264 265 266 267 269 269 270 270 271 272 273 274 275 277 278 280 281 281 281 281 281 282 283 284 285 286 287 287 286 286 286 286 285 285 284 284 283 283 282 282 281 280 279 279 278 277 277 276 274
261 260 261 261 261 262 262 263 263 264 264 264 265 266 266 267 268 267 267 267 268 267 266 267 267 267 267 266 265 264 264 263 264 264 264 264 264 266 267 268 269 270 270 271 272 273 275 276 278 279 280 281 281 281 281 281 282 283 284 285 286 287 288 288 288 288 287 287 287 286 286 285 285 284 284 283 282 281 280 279 278 277 276 275 274
260 260 260 261 261 262 263 263 264 264 264 265 265 265 266 266 267 267 266 266 267 266 266 267 267 266 265 264 263 262 261 261 262 262 263 264 266 268 269 270 271 272 272 273 274 276 277 279 280 281 281 281 282 282 283 284 285 286 286 286 287 288 289 290 290 289 289 288 288 288 287 287 286 286 285 284 283 282 281 280 279 277 276 275 274
259 259 260 260 260 261 262 262 263 263 264 265 266 266 267 267 266 265 264 265 266 265 265 266 266 265 264 262 260 259 259 259 260 261 262 264 266 268 270 271 272 273 274 275 277 278 279 280 281 282 282 282 283 284 285 285 286 286 287 287 288 289 290 291 291 290 290 290 289 288 288 287 287 286 285 285 283 282 281 280 279 277 276 275 274
259 260 260 261 260 259 259 260 261 261 262 263 265 266 267 267 265 264 263 263 264 264 263 263 263 261 260 258 257 256 257 258 259 260 261 264 266 267 269 271 272 274 277 279 280 281 281 281 281 282 282 283 284 285 285 286 287 288 289 290 291 291 292 292 291 291 291 291 290 289 288 288 287 287 286 285 284 283 281 280 279 278 276 275 273
260 260 260 260 260 260 259 259 259 259 259 261 263 264 266 266 265 264 264 263 263 262 262 261 260 259 257 256 255 254 255 256 258 260 262 262 263 265 268 271 274 277 280 281 281 280 280 280 280 282 283 285 286 287 288 290 291 292 292 293 293 293 293 293 293 293 293 292 291 290 290 289 288 287 286 285 284 283 282 281 279 278 276 274 272
260 260 260 260 261 260 258 257 257 257 257 259 260 262 263 264 264 264 264 263 261 261 260 258 256 255 255 255 255 254 253 254 257 259 259 260 262 265 269 273 276 278 280 279 278 278 279 280 283 286 289 290 291 292 292 293 294 294 294 294 294 295 295 295 295 294 294 293 292 291 290 290 289 288 287 286 285 284 283 281 279 277 276 274 272
258 258 259 260 260 259 257 255 255 255 256 257 257 258 260 262 264 265 263 261 258 257 256 255 254 253 252 252 253 254 254 253 254 255 257 259 263 267 271 274 276 277 277 277 277 279 281 285 290 293 293 293 293 294 294 295 295 295 296 296 297 297 297 296 296 296 295 293 292 292 291 290 289 288 287 286 285 284 283 281 279 277 275 273 271
256 256 257 258 258 257 255 254 253 253 253 254 255 256 257 259 261 262 260 257 254 254 253 251 250 250 249 248 249 250 250 249 251 254 258 261 264 268 271 274 274 275 276 277 280 284 288 291 294 295 294 294 295 295 296 297 298 298 299 299 300 300 299 299 298 297 295 294 293 292 291 290 290 289 288 287 287 285 284 282 280 277 274 272 270
254 254 255 255 255 254 253 252 252 251 251 252 253 254 254 254 254 254 253 251 251 251 250 247 245 244 244 244 244 244 244 247 251 255 258 261 265 268 270 271 272 274 277 281 285 288 290 292 294 295 296 297 298 299 300 301 302 303 303 304 303 303 302 302 300 299 297 296 295 294 293 293 292 291 290 290 289 287 286 284 281 278 275 273 270
252 252 253 253 253 252 251 251 251 251 251 250 250 250 249 248 245 244 243 241 240 242 243 242 241 239 238 238 238 240 243 248 253 255 257 260 262 264 266 268 270 274 278 283 286 288 290 294 298 300 302 303 304 305 306 307 307 308 308 308 307 307 306 305 303 302 301 299 298 297 296 295 294 293 293 292 291 290 289 287 285 282 280 276 273
251 251 252 252 251 251 250 249 249 248 247 246 245 243 242 240 239 237 235 231 229 230 233 235 237 236 234 234 236 240 245 249 252 255 256 256 255 256 260 266 270 274 277 282 285 289 295 300 304 307 308 310 310 311 311 311 311 311 311 311 311 310 308 307 306 305 304 303 301 300 299 298 296 296 295 295 294 293 292 291 288 286 283 280 277
248 248 248 248 248 247 246 245 243 241 240 239 237 236 235 233 231 228 225 221 220 221 222 225 229 231 232 234 237 242 246 248 250 250 248 245 244 247 253 261 267 273 280 286 291 298 304 308 312 314 315 315 315 315 315 314 314 315 315 315 314 313 311 310 309 308 308 307 305 303 302 301 300 300 299 299 297 296 295 294 291 288 285 282 279
244 244 243 243 243 242 240 238 235 233 232 231 229 228 226 223 221 218 215 212 212 213 214 217 221 225 231 236 239 240 241 242 240 237 233 231 231 234 241 250 260 273 288 296 302 309 314 318 320 321 321 320 321 321 321 320 321 321 321 320 318 317 315 314 313 313 312 311 309 308 307 306 305 305 304 302 300 299 298 296 293 291 287 284 281
239 239 238 237 236 235 233 230 227 225 224 223 221 218 215 213 212 210 206 205 207 209 211 215 221 225 228 230 231 230 229 227 224 220 217 213 211 215 225 237 251 274 294 306 314 321 325 328 329 329 328 328 328 327 327 327 328 327 326 325 323 322 321 319 318 318 316 315 314 312 311 310 309 309 306 303 302 301 300 297 295 292 288 285 281
232 231 230 228 227 226 223 220 218 217 215 213 210 207 206 206 205 202 200 201 204 206 209 213 217 218 217 216 216 214 212 210 207 205 203 201 203 208 216 222 239 275 306 321 328 332 335 336 336 336 336 335 334 333 333 334 334 333 332 331 330 328 327 326 325 323 322 321 319 318 316 315 315 314 311 307 305 305 303 301 298 295 291 287 282
222 221 219 217 215 214 212 209 206 203 200 198 198 197 197 197 195 193 194 196 199 203 206 206 206 204 202 200 199 195 190 189 190 189 191 196 199 200 199 205 233 292 324 334 337 339 343 343 342 342 343 341 339 339 340 340 340 339 338 336 335 333 332 331 330 329 327 325 324 322 320 320 319 318 315 311 310 309 308 305 303 301 298 293 286
206 205 204 202 200 198 196 192 188 186 187 187 187 186 185 185 185 186 189 193 197 200 200 197 195 193 190 186 184 182 178 175 175 176 179 182 181 180 185 203 258 320 339 344 344 346 348 347 346 346 347 346 346 346 346 346 345 344 341 340 338 336 335 335 335 333 329 327 326 325 324 323 322 321 318 316 316 316 315 314 311 307 304 301 294
170 174 177 178 178 176 173 171 172 175 176 175 173 172 173 176 178 182 185 187 189 189 187 185 186 186 183 181 182 182 178 172 168 167 171 173 172 176 191 220 312 344 347 347 347 350 352 351 349 350 351 351 351 351 351 350 350 347 344 342 341 339 338 338 338 336 331 328 328 329 327 326 326 325 324 323 324 324 324 323 320 316 312 309 303
140 146 150 153 155 157 157 159 162 164 164 163 163 165 167 170 173 175 177 178 178 178 177 177 177 179 179 179 178 176 174 172 172 172 172 173 178 190 207 239 324 339 342 345 348 352 354 353 352 352 354 354 354 354 353 353 353 351 348 345 343 342 341 341 340 338 334 332 332 332 330 329 330 331 331 330 329 329 330 331 331 328 325 321 315
128 134 138 141 144 147 150 152 154 155 155 156 158 160 162 165 168 171 172 173 173 173 172 170 169 171 172 172 171 171 173 177 180 179 179 184 196 208 222 273 315 326 336 342 347 351 354 353 353 354 355 356 356 356 355 354 354 354 351 349 347 345 344 344 343 342 340 337 336 335 334 335 336 337 337 336 335 334 336 338 338 338 339 337 331
119 125 131 136 139 141 143 146 148 149 150 150 152 154 157 161 165 168 169 169 169 168 167 167 167 168 168 169 171 174 177 178 178 180 186 197 208 217 242 299 318 324 332 340 344 349 352 353 352 354 356 357 357 357 357 356 356 356 355 353 350 348 347 347 346 346 345 343 340 338 338 341 344 345 345 344 343 343 344 346 346 347 349 349 347
112 117 123 128 132 134 137 140 142 143 144 145 147 149 151 153 155 157 160 162 162 163 164 167 169 172 174 174 174 175 177 179 182 188 197 207 218 233 271 309 322 326 333 341 344 346 349 351 352 353 356 357 358 358 358 357 357 358 358 357 354 352 351 350 348 347 347 345 343 342 342 346 350 352 350 349 349 350 351 355 359 360 358 356 355
108 112 117 122 125 128 131 135 138 140 141 143 145 147 147 147 148 150 153 156 158 159 163 167 170 176 179 178 175 175 179 184 190 197 207 220 234 257 290 312 319 324 332 340 343 344 347 350 351 352 355 357 358 358 358 358 359 360 0 360 358 356 354 353 351 349 348 346 346 346 347 350 353 355 353 352 352 353 354 358 5 8 7 7 8
107 110 114 117 120 124 128 133 137 140 141 142 144 146 146 147 148 150 153 156 158 161 165 169 171 174 176 176 175 178 183 188 196 207 219 234 251 274 299 313 317 320 328 337 341 343 345 348 349 351 354 357 358 358 359 359 0 1 2 2 1 360 358 356 354 353 351 348 348 349 351 352 355 357 358 357 356 356 358 360 3 7 11 16 21
108 111 115 116 118 122 128 134 139 142 143 143 144 146 148 151 152 153 155 158 160 162 166 170 172 174 176 179 182 188 192 198 210 225 237 250 267 284 300 311 315 318 324 331 337 340 343 345 348 350 353 355 357 358 359 360 1 2 3 3 3 3 1 359 358 356 354 352 350 349 350 352 354 358 3 4 3 3 5 5 3 5 11 18 27
107 112 115 117 119 124 131 137 142 145 147 148 150 152 154 155 155 156 159 163 166 167 169 174 178 182 184 188 194 202 208 215 227 239 247 258 271 284 296 306 311 315 321 327 332 336 340 342 345 349 352 354 356 358 359 0 1 3 3 3 3 4 3 2 1 359 357 356 354 350 349 351 354 358 4 9 11 12 13 12 10 8 10 14 25
107 112 116 119 123 128 134 140 145 149 153 156 159 161 161 160 160 162 167 172 175 177 179 184 190 195 199 204 212 219 223 229 237 244 250 258 269 282 294 303 308 312 317 324 329 333 336 338 342 347 351 352 354 357 359 0 1 2 3 4 4 5 5 4 3 1 0 359 358 355 351 350 352 356 1 8 12 15 17 17 16 14 13 15 22